Regional Weather Roundup
Issued by NWS

Home | Current Version | Previous Version | Text Only | Print | Product List | Glossary On
Versions: 1 2 3 4 5 6 7 8 9 10 11 12 13 14 15 16 17 18 19 20 21 22 23 24 25 26 27 28 29 30 31 32 33 34 35 36 37 38 39 40 41 42 43 44 45 46 47 48 49 50
000
ASUS45 KPSR 022210
RWRAZ

ARIZONA HOURLY REGIONAL WEATHER ROUNDUP
NATIONAL WEATHER SERVICE PHOENIX AZ
300 PM MST MON MAY 02 2016

NOTE: FAIR INDICATES FEW OR NO CLOUDS BELOW 12,000 FEET WITH NO
SIGNIFICANT WEATHER AND/OR OBSTRUCTIONS TO VISIBILITY.

AZZ001>003-036-022300-
NORTHWEST ARIZONA

CITY           SKY/WX    TMP DP  RH WIND       PRES   REMARKS
BULLHEAD CITY  MOSUNNY   84  36  17 N14       29.96F
KINGMAN        PTSUNNY   72  36  26 SE21      30.07F
$$

AZZ004>008-015-016-018-022300-
NORTH CENTRAL ARIZONA

CITY           SKY/WX    TMP DP  RH WIND       PRES   REMARKS
GRAND CANYON   PTSUNNY   54  31  41 CALM      30.20F
WILLIAMS       PTSUNNY   50  37  62 E6        30.26F
PRESCOTT       PTSUNNY   66  33  29 MISG      30.10F
FLAGSTAFF      LGT RAIN  48  37  65 W10       30.19F
PAYSON         MOSUNNY   66  28  24 VRB5G12   30.12F
PAGE           MOSUNNY   65  36  34 E7        30.15F
$$

AZZ009>014-017-022300-
NORTHEAST ARIZONA

CITY           SKY/WX    TMP DP  RH WIND       PRES   REMARKS
WINSLOW        CLOUDY    65  39  38 NE7       30.13F
SAINT JOHNS    PTSUNNY   62  34  35 W13       30.11F
WINDOW ROCK    PTSUNNY   57  30  35 W6        30.19F
SHOW LOW       PTSUNNY   55  32  41 N6        30.16F
$$

AZZ023-022300-
GREATER PHOENIX AREA

CITY           SKY/WX    TMP DP  RH WIND       PRES   REMARKS
PHOENIX        MOSUNNY   86  36  16 W7        29.90F
GLENDALE       MOSUNNY   84  34  16 CALM      29.94F
LUKE AFB       SUNNY     85  36  17 E9        29.90F
DEER VALLEY    SUNNY     82  33  17 S7        29.92F
SCOTTSDALE     SUNNY     83  29  14 VRB7      29.94F
MESA-FALCON    MOSUNNY  N/A N/A N/A NW6       29.90F
MESA-GATEWAY   MOSUNNY   82  36  18 W9        29.93F
CHANDLER       PTSUNNY   86  34  15 VRB7      29.92F
$$

AZZ027-028-022300-
SOUTHWEST MARICOPA COUNTY AND PINAL COUNTY

CITY           SKY/WX    TMP DP  RH WIND       PRES   REMARKS
CASA GRANDE    SUNNY    N/A N/A N/A MISG        N/A
GILA BEND      MOSUNNY   87  34  15 N10       29.88F
$$

AZZ503-504-507>509-022300-
SOUTHEAST ARIZONA

CITY           SKY/WX    TMP DP  RH WIND       PRES   REMARKS
TUCSON         SUNNY     83  28  13 CALM      29.96F
DAVIS-MONTHAN  SUNNY     83  31  15 VRB1      29.94F
NOGALES        SUNNY     80  22  11 W8        29.99F
SIERRA VISTA   SUNNY     75  28  18 VRB1      30.05F
DOUGLAS        MOSUNNY   76  30  18 SW6       30.03F
SAFFORD        SUNNY     76  30  18 CALM      30.01F
$$

AZZ020-021-025-026-031-022300-
SOUTHWEST ARIZONA

CITY           SKY/WX    TMP DP  RH WIND       PRES   REMARKS
YUMA           MOSUNNY   89  38  16 VRB3      29.89F
$$

CAZ031-033-041-043-047-048-061-022300-
SOUTHERN CALIFORNIA

CITY           SKY/WX    TMP DP  RH WIND       PRES   REMARKS
DOWNTOWN L.A.  SUNNY     69  53  56 W9        29.97F
L.A. AIRPORT   MOSUNNY   65  53  65 W18       29.99F
SAN DIEGO      MOSUNNY   69  55  60 W13       30.00F
BURBANK        MOSUNNY   81  46  29 S6        29.95F
ONTARIO        MOSUNNY   86  36  16 VRB3      29.94F
RIVERSIDE      PTSUNNY   87  39  18 VRB7      29.93F
PALM SPRINGS   PTSUNNY   88  38  17 VRB5      29.92F
EL CENTRO NAS  MOSUNNY   86  39  19 VRB3      29.91F
IMPERIAL       SUNNY     91  41  17 N7        29.89F
BLYTHE         SUNNY     88  38  17 S7        29.91F
NEEDLES        MOSUNNY   85  38  18 VRB3      29.94F
$$

NVZ020-UTZ003-022300-
SOUTHERN NEVADA-UTAH

CITY           SKY/WX    TMP DP  RH WIND       PRES   REMARKS
LAS VEGAS      MOSUNNY   79  33  19 CALM      29.99F
SALT LAKE CITY MOSUNNY   67  30  25 N6        30.15F
$$

NMZ009-TXZ055-022300-
NEW MEXICO-WEST TEXAS

CITY           SKY/WX    TMP DP  RH WIND       PRES   REMARKS
ALBUQUERQUE    MOSUNNY   60  33  36 NW3       30.17F
EL PASO        MOSUNNY   71  32  23 E9        30.10F
$$


........................KEY........................
SKY/WX - SKY CONDITION/WEATHER
TMP    - TEMPERATURE IN FAHRENHEIT
DP     - DEW POINT IN FAHRENHEIT
RH     - RELATIVE HUMIDITY IN PERCENT
WIND   - DIRECTION AND SPEED IN MILES PER HOUR (MPH)
VRB    - VARIABLE WIND DIRECTION
PRES   - MEAN SEA LEVEL PRESSURE IN INCHES OF MERCURY
         F - FALLING PRESSURE   R - RISING PRESSURE
         S - STEADY PRESSURE
VSB    - VISIBILITY IN MILES
HX     - HEAT INDEX IN FAHRENHEIT
WCI    - WIND CHILL INDEX IN FAHRENHEIT
TC     - TEMPERATURE IN CELSIUS WHICH IS ALSO KNOWN AS
         TEMPERATURE IN CENTIGRADE
AFB    - AIR FORCE BASE
         LUKE AFB IS LUKE AIR FORCE BASE
         DAVIS-MONTHAN IS DAVIS-MONTHAN AIR FORCE BASE
NAS    - NAVAL AIR STATION
         EL CENTRO NAS IS EL CENTRO NAVAL AIR STATION
N/A    - NOT AVAILABLE




USA.gov is the U.S. government's official web portal to all federal, state and local government web resources and services.